Regional Weather Roundup
Issued by NWS

Home | Current Version | Previous Version | Text Only | Print | Product List | Glossary Off
Versions: 1 2 3 4 5 6 7 8 9 10 11 12 13 14 15 16 17 18 19 20 21 22 23 24 25 26 27 28 29 30 31 32 33 34 35 36 37 38 39 40 41 42 43 44 45 46 47 48 49 50

000
ASUS43 KFSD 281402
RWRSD

WEATHER ROUNDUP FOR SOUTH DAKOTA
NATIONAL WEATHER SERVICE SIOUX FALLS SD
900 AM CDT TUE JUL 28 2015

NOTE: "FAIR" INDICATES FEW OR NO CLOUDS BELOW 12,000 FEET WITH NO
SIGNIFICANT WEATHER AND/OR OBSTRUCTIONS TO VISIBILITY.


SDZ001>005-009-010-012>017-281500-
NORTHWEST AND NORTH CENTRAL SOUTH DAKOTA

CITY           SKY/WX    TMP DP  RH WIND       PRES   REMARKS
FAITH            N/A     62  45  53 W28G40    29.88R
MOBRIDGE       SUNNY     65  54  67 W14       29.80R
$$

SDZ012>016-024>037-041>051-057-063-072>074-281500-
SOUTHWEST AND SOUTH CENTRAL SOUTH DAKOTA

CITY           SKY/WX    TMP DP  RH WIND       PRES   REMARKS
RAPID CTY ARPT SUNNY     63  45  51 NW12      29.99R
PIERRE         SUNNY     65  52  62 W25G35    29.88R
CUSTER         SUNNY     54  38  54 W10G23    30.07R
ELLSWORTH AFB  SUNNY     64  44  48 NW15G22   29.98R
PHILIP         SUNNY     65  49  56 NW23G33   29.93R
PINE RIDGE     SUNNY     60  47  61 W14       30.03R
WINNER         FAIR      65  54  67 NW21G28   29.93R
$$

SDZ004>011-016>023-039-040-281500-
NORTHEAST SOUTH DAKOTA

CITY           SKY/WX    TMP DP  RH WIND       PRES   REMARKS
ABERDEEN       MOSUNNY   68  59  73 W15       29.81R
WATERTOWN      CLOUDY    70  67  90 SW12      29.82R
BROOKINGS      CLOUDY    70  66  88 S12G21    29.84R
$$

SDZ017-020-022-023-036>040-048>070-281500-
SOUTHEAST SOUTH DAKOTA

CITY           SKY/WX    TMP DP  RH WIND       PRES   REMARKS
SIOUX FALLS    CLOUDY    73  67  81 S13       29.81F
HURON          CLOUDY    70  67  90 W8        29.83R
CHAMBERLAIN    SUNNY     64  56  76 NW20G29   29.90R
MITCHELL       CLOUDY    71  68  90 W7        29.85R
YANKTON        CLOUDY    77  68  73 MISG      29.83F
$$

ABBREVIATIONS USED IN REMARKS
   TC - TEMPERATURE IN CELSIUS
  WCI - WIND CHILL INDEX
   HX - HEAT INDEX
  VSB - VISIBILITY




USA.gov is the U.S. government's official web portal to all federal, state and local government web resources and services.